sat.trackr.live / text

‹ back to catalog

RASSVET-3 16

NORAD 68375 · 2026-061R

PAYLOAD ACTIVE UNKNOWN

§ Identity

Operator
Country
CIS
Launch date
2026-03-23
Launch site
PLMSC
Launch vehicle
Mass (kg)
RCS (m²)

External: N2YO · Heavens-Above · Gunter

§ Orbital elements

Epoch: 2026-09-19T07:41:48.963840Z

Period
94.84 min
Inclination
82.2898°
Eccentricity
0.0002632
Mean motion
15.18409608 rev/d
Perigee alt
508.8 km
Apogee alt
512.5 km
Semi-major
6,888.8 km
B*
1.6192e-4
RAAN
276.2946°
Arg perigee
71.2885°
Mean anomaly
288.8633°
Rev number
2,784

§ Raw data

RASSVET-3 161 68375U 26061R   26262.32070560  .00003359  00000+0  16192-3 0  99962 68375  82.2898 276.2946 0002632  71.2885 288.8633 15.18409608 27849

JSON: /api/v1/satellites/68375 · /tle

For live sub-satellite position, see the globe view (requires WebGL).

§ Visibility from observer

Set your observer location to see the next 7 days of passes ≥ 10°. The values pass through the URL so the page stays shareable.

No JS? Fill the form by hand. The geolocation button needs JavaScript.